FW2140 Weather Reports


Display with metric or nautical units.
time (UTC)temp
F
wind
direction
speed
MPH
gust
MPH
rain 1hr
in
rain 24hr
in
rain mn
in
humidity
%
barometer
mb
20260507191404 67 291 3.0 7.0 0.00 0.18 0.13 27 1005.5
20260507190404 66 265 2.0 12.0 0.00 0.18 0.13 27 1005.5
20260507185403 66 288 3.0 8.0 0.00 0.18 0.13 29 1005.4
20260507184404 66 295 3.0 7.0 0.00 0.18 0.13 26 1005.7
20260507181405 65 290 2.0 9.0 0.00 0.18 0.13 33 1005.7
20260507180405 65 282 4.0 7.0 0.00 0.18 0.13 34 1005.8
20260507175404 66 256 3.0 9.0 0.00 0.18 0.13 36 1005.9
20260507174404 64 296 3.0 7.0 0.00 0.18 0.13 36 1005.8
20260507173403 64 268 4.0 9.0 0.00 0.18 0.13 35 1006.1
20260507172404 64 299 4.0 9.0 0.00 0.18 0.13 36 1006.1
20260507171404 64 264 2.0 7.0 0.00 0.18 0.13 38 1006.0
20260507164404 63 260 2.0 6.0 0.00 0.18 0.13 46 1006.3
20260507163404 64 283 2.0 5.0 0.00 0.18 0.13 45 1006.3
20260507162404 62 267 2.0 7.0 0.00 0.18 0.13 50 1006.2
20260507161403 63 297 3.0 7.0 0.00 0.18 0.13 50 1006.5
20260507160404 63 251 1.0 6.0 0.00 0.18 0.13 50 1006.6
20260507153404 61 258 1.0 7.0 0.00 0.18 0.13 57 1006.9
20260507151403 60 252 1.0 5.0 0.00 0.18 0.13 57 1007.0
20260507150404 60 282 1.0 6.0 0.00 0.18 0.13 57 1007.4
20260507145404 61 279 1.0 3.0 0.00 0.18 0.13 54 1007.3
20260507144404 60 242 0.0 5.0 0.00 0.18 0.13 56 1007.4
20260507142404 60 290 1.0 5.0 0.00 0.18 0.13 55 1007.5
20260507141403 60 306 1.0 5.0 0.00 0.18 0.13 52 1007.5
20260507140404 58 308 2.0 6.0 0.00 0.18 0.13 57 1007.4
20260507135403 57 286 2.0 6.0 0.00 0.18 0.13 58 1007.3
20260507134404 56 313 3.0 5.0 0.00 0.18 0.13 59 1007.4
20260507133403 57 279 2.0 5.0 0.00 0.18 0.13 62 1007.5
20260507132404 56 289 2.0 5.0 0.00 0.18 0.13 68 1007.3
20260507131404 55 324 2.0 9.0 0.00 0.18 0.13 73 1007.7
20260507130404 54 261 2.0 5.0 0.00 0.18 0.13 77 1007.6
20260507125406 54 5 3.0 6.0 0.00 0.18 0.13 78 1008.0
20260507124407 53 281 2.0 5.0 0.00 0.18 0.13 81 1008.1
20260507123407 52 302 1.0 5.0 0.00 0.18 0.13 84 1007.8
20260507122406 51 318 2.0 7.0 0.00 0.18 0.13 87 1007.9
20260507121406 50 293 2.0 5.0 0.00 0.18 0.13 91 1007.8
20260507120406 49 281 1.0 3.0 0.00 0.18 0.13 94 1007.7
20260507115404 50 301 0.0 2.0 0.00 0.18 0.13 96 1007.7
20260507114403 49 296 1.0 2.0 0.00 0.18 0.13 96 1007.9
20260507113404 48 258 0.0 3.0 0.00 0.18 0.13 97 1007.6
20260507112404 49 287 0.0 0.0 0.00 0.18 0.13 98 1007.6
20260507111404 49 251 0.0 0.0 0.00 0.18 0.13 98 1007.5
20260507110404 49 252 0.0 2.0 0.00 0.18 0.13 98 1007.5
20260507105404 49 273 0.0 0.0 0.01 0.18 0.13 98 1007.4
20260507104404 49 257 0.0 0.0 0.02 0.18 0.13 98 1007.7
20260507103404 49 260 0.0 0.0 0.04 0.18 0.13 98 1007.8
20260507102404 49 249 0.0 0.0 0.05 0.18 0.13 98 1007.4
20260507101403 49 247 0.0 2.0 0.06 0.18 0.13 97 1007.4
20260507100404 49 280 0.0 2.0 0.08 0.18 0.13 97 1007.1
20260507095404 49 261 0.0 3.0 0.09 0.17 0.12 97 1006.9
20260507094404 49 263 1.0 3.0 0.08 0.16 0.11 97 1006.8
20260507093404 49 283 1.0 3.0 0.06 0.14 0.09 96 1007.1
20260507091404 50 271 1.0 3.0 0.06 0.12 0.07 96 1006.9
20260507090403 50 285 2.0 5.0 0.04 0.10 0.05 96 1007.5
20260507085404 51 279 1.0 3.0 0.02 0.08 0.03 96 1007.0
20260507084404 51 257 1.0 3.0 0.03 0.08 0.03 95 1007.1
20260507083404 51 281 2.0 3.0 0.03 0.08 0.03 95 1006.7
20260507082403 52 249 0.0 3.0 0.02 0.07 0.02 94 1007.2
20260507080404 53 305 2.0 5.0 0.01 0.06 0.01 94 1007.3
20260507075403 53 282 2.0 6.0 0.01 0.06 0.01 93 1006.8
20260507074404 54 293 2.0 6.0 0.00 0.05 0.00 91 1006.7
20260507072403 55 289 2.0 3.0 0.00 0.05 0.00 88 1005.9
20260507071404 55 271 1.0 5.0 0.00 0.05 0.00 88 1006.0
20260507070404 56 282 2.0 5.0 0.00 0.05 0.00 89 1006.2
20260507065404 56 295 1.0 6.0 0.00 0.05 0.00 89 1006.0
20260507064404 56 291 2.0 6.0 0.00 0.05 0.00 88 1006.2
20260507063404 56 275 1.0 6.0 0.00 0.05 0.00 88 1006.4
20260507062403 56 298 2.0 3.0 0.00 0.05 0.00 88 1006.3
20260507061404 57 262 1.0 6.0 0.00 0.05 0.00 88 1005.7
20260507060403 57 9 1.0 6.0 0.00 0.05 0.00 88 1006.2
20260507055404 57 289 2.0 5.0 0.00 0.05 0.00 89 1006.2
20260507054404 58 275 1.0 3.0 0.00 0.05 0.00 90 1006.4
20260507053403 58 287 2.0 3.0 0.00 0.05 0.00 91 1006.5
20260507052406 59 267 0.0 3.0 0.00 0.05 0.00 91 1006.3
20260507051404 59 287 1.0 5.0 0.00 0.05 0.00 91 1005.9
20260507050404 59 276 2.0 6.0 0.00 0.05 0.00 91 1006.1
20260507045403 59 285 2.0 6.0 0.00 0.05 0.00 93 1006.3
20260507044404 59 291 2.0 6.0 0.00 0.05 0.00 96 1006.0
20260507042403 60 274 1.0 2.0 0.00 0.05 0.00 97 1006.0
20260507041404 60 199 0.0 2.0 0.00 0.05 0.00 97 1006.2
20260507040403 60 285 1.0 2.0 0.00 0.05 0.00 97 1006.4
20260507035404 60 188 0.0 3.0 0.00 0.05 0.05 97 1006.5
20260507034404 60 272 1.0 3.0 0.00 0.05 0.05 96 1006.2
20260507033404 60 252 1.0 3.0 0.00 0.05 0.05 96 1005.9
20260507032405 60 195 2.0 5.0 0.00 0.05 0.05 95 1005.9
20260507031404 60 200 1.0 7.0 0.00 0.05 0.05 95 1005.7
20260507030404 60 279 2.0 5.0 0.00 0.05 0.05 96 1005.5
20260507025404 59 202 0.0 5.0 0.00 0.05 0.05 96 1005.8
20260507024404 59 116 1.0 3.0 0.00 0.05 0.05 96 1005.9
20260507022404 59 245 2.0 3.0 0.00 0.05 0.05 96 1005.7
20260507021404 59 256 2.0 3.0 0.00 0.05 0.05 96 1005.7
20260507015404 59 226 0.0 2.0 0.00 0.05 0.05 97 1005.9
20260507014404 59 129 1.0 5.0 0.00 0.05 0.05 97 1005.9
20260507013404 58 150 1.0 5.0 0.00 0.05 0.05 97 1005.9
20260507012404 58 178 1.0 2.0 0.00 0.05 0.05 97 1005.9
20260507011404 58 203 1.0 3.0 0.00 0.05 0.05 97 1006.1
20260507010404 58 124 0.0 6.0 0.00 0.05 0.05 97 1006.3
20260507005404 58 192 1.0 3.0 0.00 0.05 0.05 97 1006.5
20260507004404 58 214 0.0 6.0 0.01 0.05 0.05 97 1006.1
20260507003404 58 247 1.0 6.0 0.01 0.05 0.05 97 1006.2
20260507002404 58 236 1.0 6.0 0.02 0.05 0.05 97 1006.3
20260507001404 58 135 0.0 5.0 0.02 0.05 0.05 97 1006.1
20260507000405 58 241 1.0 5.0 0.02 0.05 0.05 97 1006.0
20260506235404 58 249 2.0 5.0 0.02 0.05 0.05 97 1006.3
20260506234403 58 115 1.0 5.0 0.01 0.04 0.04 97 1005.9
20260506232403 59 250 1.0 3.0 0.01 0.03 0.03 97 1005.8
20260506231404 59 146 0.0 3.0 0.01 0.03 0.03 96 1005.6
20260506230404 59 184 1.0 5.0 0.01 0.03 0.03 96 1006.0
20260506225404 59 194 1.0 2.0 0.01 0.03 0.03 96 1005.9
20260506224403 60 238 0.0 6.0 0.01 0.03 0.03 96 1006.0
20260506222403 60 244 1.0 5.0 0.01 0.02 0.02 96 1006.3
20260506221404 61 127 2.0 5.0 0.01 0.02 0.02 95 1006.4
20260506220404 61 184 1.0 3.0 0.01 0.02 0.02 95 1006.3
20260506215404 61 155 1.0 5.0 0.01 0.02 0.02 94 1006.6
20260506214404 61 263 1.0 7.0 0.01 0.02 0.02 92 1006.9
20260506213404 62 346 1.0 6.0 0.00 0.01 0.01 90 1006.8
20260506212404 62 135 1.0 6.0 0.00 0.01 0.01 88 1006.7
20260506211404 62 266 2.0 7.0 0.00 0.01 0.01 88 1006.8
20260506210404 62 151 1.0 7.0 0.00 0.01 0.01 88 1006.7
20260506205404 62 219 1.0 6.0 0.00 0.01 0.01 88 1006.9
20260506204404 63 195 3.0 6.0 0.01 0.01 0.01 87 1007.0
20260506203404 63 239 1.0 7.0 0.01 0.01 0.01 85 1006.9
20260506202404 63 275 2.0 6.0 0.01 0.01 0.01 83 1006.9
20260506201403 64 267 2.0 6.0 0.01 0.01 0.01 83 1006.9
20260506195403 65 221 2.0 5.0 0.01 0.01 0.01 82 1006.8
20260506194403 65 133 1.0 5.0 0.00 0.00 0.00 79 1007.2
20260506193403 66 241 1.0 6.0 0.00 0.00 0.00 77 1007.3
20260506192403 66 182 2.0 7.0 0.00 0.00 0.00 75 1007.2